EW5474 Weather Reports


Display with metric or nautical units.
time (UTC)temp
F
wind
direction
speed
MPH
gust
MPH
rain 1hr
in
rain 24hr
in
rain mn
in
humidity
%
barometer
mb
20260902035324 81 191 0.0 0.0 0.00 0.00 0.00 80 1015.7
20260902034817 81 191 0.0 0.0 0.00 0.00 0.00 80 1015.7
20260902034312 81 191 0.0 0.0 0.00 0.00 0.00 81 1015.6
20260902034037 81 191 0.0 0.0 0.00 0.00 0.00 80 1015.6
20260902033300 81 191 0.0 0.0 0.00 0.00 0.00 80 1015.6
20260902032754 81 191 0.0 0.0 0.00 0.00 0.00 79 1015.6
20260902032300 82 191 0.0 0.0 0.00 0.00 0.00 79 1015.5
20260902031743 82 191 0.0 0.0 0.00 0.00 0.00 79 1015.4
20260902031236 82 191 0.0 0.0 0.00 0.00 0.00 79 1015.5
20260902030730 82 191 0.0 0.0 0.00 0.00 0.00 79 1015.6
20260902030224 82 191 0.0 0.0 0.00 0.00 0.00 79 1015.7
20260902025718 82 191 0.0 0.0 0.00 0.00 0.00 79 1015.6
20260902025211 82 191 0.0 0.0 0.00 0.00 0.00 79 1015.7
20260902024706 82 191 0.0 0.0 0.00 0.00 0.00 79 1015.7
20260902024303 82 197 0.0 0.0 0.00 0.00 0.00 79 1015.7
20260902023419 82 194 0.0 0.0 0.00 0.00 0.00 78 1015.6
20260902022655 83 185 0.0 0.0 0.00 0.00 0.00 78 1015.5
20260902022136 83 185 0.0 0.0 0.00 0.00 0.00 78 1015.5
20260902021629 83 185 0.0 0.0 0.00 0.00 0.00 78 1015.4
20260902021355 83 185 0.0 0.0 0.00 0.00 0.00 78 1015.3
20260902020849 83 185 0.0 0.0 0.00 0.00 0.00 78 1015.3
20260902020356 83 180 0.0 0.0 0.00 0.00 0.00 77 1015.3
20260902015606 83 196 0.0 0.0 0.00 0.00 0.00 77 1015.4
20260902015100 83 196 0.0 0.0 0.00 0.00 0.00 77 1015.4
20260902014554 84 194 0.0 2.0 0.00 0.00 0.00 77 1015.3
20260902014048 84 194 0.0 2.0 0.00 0.00 0.00 77 1015.1
20260902013542 84 199 0.0 0.0 0.00 0.00 0.00 77 1015.1
20260902013036 84 187 0.0 0.0 0.00 0.00 0.00 77 1014.9
20260902012801 84 185 0.0 0.0 0.00 0.00 0.00 77 1014.7
20260902012255 84 170 0.0 0.0 0.00 0.00 0.00 76 1014.8
20260902011518 85 190 0.0 0.0 0.00 0.00 0.00 76 1014.8
20260902011012 85 190 0.0 0.0 0.00 0.00 0.00 76 1014.7
20260902010506 85 180 0.0 0.0 0.00 0.00 0.00 76 1014.8
20260902010002 85 180 0.0 0.0 0.00 0.00 0.00 75 1014.7
20260902005956 85 186 0.0 0.0 0.00 0.00 0.00 75 1014.6
20260902004948 85 186 0.0 0.0 0.00 0.00 0.00 75 1014.6
20260902004442 85 186 0.0 0.0 0.00 0.00 0.00 75 1014.5
20260902003936 85 186 0.0 0.0 0.00 0.00 0.00 75 1014.4
20260902003430 86 186 0.0 0.0 0.00 0.00 0.00 75 1014.4
20260902003155 86 192 0.0 3.0 0.00 0.00 0.00 75 1014.4
20260902002417 86 206 0.0 5.0 0.00 0.00 0.00 75 1014.5
20260902001912 86 193 0.0 5.0 0.00 0.00 0.00 75 1014.4
20260902001419 86 184 1.0 4.0 0.00 0.00 0.00 74 1014.4
20260902000903 86 223 0.0 4.0 0.00 0.00 0.00 74 1014.4
20260902000856 87 198 0.0 0.0 0.00 0.00 0.00 74 1014.4
20260901235848 87 198 0.0 1.0 0.00 0.00 0.00 74 1014.4
20260901235342 87 198 0.0 1.0 0.00 0.00 0.00 74 1014.4
20260901234842 87 198 0.0 2.0 0.00 0.00 0.00 74 1014.4
20260901234338 87 198 0.0 2.0 0.00 0.00 0.00 74 1014.4
20260901233838 87 157 0.0 2.0 0.00 0.00 0.00 73 1014.5
20260901233335 87 157 0.0 2.0 0.00 0.00 0.00 73 1014.5
20260901232834 87 167 0.0 0.0 0.00 0.00 0.00 73 1014.6
20260901232339 87 188 1.0 4.0 0.00 0.00 0.00 73 1014.7
20260901232332 87 183 0.0 4.0 0.00 0.00 0.00 73 1014.6
20260901231329 87 175 1.0 4.0 0.00 0.00 0.00 72 1014.8
20260901230830 87 182 1.0 4.0 0.00 0.00 0.00 72 1014.8
20260901230557 87 185 1.0 4.0 0.00 0.00 0.00 72 1014.8
20260901225827 87 187 1.0 4.0 0.00 0.00 0.00 72 1014.8
20260901225559 87 188 1.0 4.0 0.00 0.00 0.00 72 1014.9
20260901224827 88 65 1.0 5.0 0.00 0.00 0.00 71 1014.8
20260901224328 88 173 2.0 5.0 0.00 0.00 0.00 70 1014.9
20260901223827 88 164 2.0 5.0 0.00 0.00 0.00 70 1015.0
20260901223327 88 165 2.0 4.0 0.00 0.00 0.00 70 1015.1
20260901222827 88 133 2.0 4.0 0.00 0.01 0.00 70 1015.1
20260901222328 88 69 2.0 4.0 0.00 0.01 0.00 69 1015.1
20260901222059 88 198 2.0 6.0 0.00 0.01 0.00 70 1015.2
20260901221330 89 152 1.0 6.0 0.00 0.01 0.00 68 1015.1
20260901221322 89 180 2.0 6.0 0.00 0.01 0.00 68 1015.1
20260901220541 89 172 1.0 4.0 0.00 0.01 0.00 68 1015.2
20260901215804 89 182 1.0 4.0 0.00 0.02 0.00 68 1015.2
20260901215258 90 24 1.0 7.0 0.00 0.02 0.00 68 1015.3
20260901214752 89 146 2.0 7.0 0.00 0.02 0.00 68 1015.2
20260901214245 90 38 1.0 8.0 0.00 0.07 0.00 67 1015.2
20260901213740 90 92 1.0 6.0 0.00 0.14 0.00 66 1015.2
20260901213234 90 15 1.0 8.0 0.00 0.21 0.00 66 1015.1
20260901212959 91 175 2.0 8.0 0.00 0.32 0.00 66 1015.0
20260901212222 91 58 2.0 9.0 0.00 0.34 0.00 67 1015.0
20260901211716 91 338 2.0 9.0 0.00 0.35 0.00 66 1015.1
20260901211209 90 325 1.0 5.0 0.00 0.35 0.00 66 1015.1
20260901210704 91 25 1.0 5.0 0.00 0.35 0.00 68 1015.1
20260901210158 91 207 1.0 5.0 0.00 0.35 0.00 66 1015.1
20260901205652 91 22 2.0 5.0 0.00 0.35 0.00 67 1015.1
20260901205146 91 84 2.0 6.0 0.00 0.35 0.00 65 1015.1
20260901204640 91 342 1.0 6.0 0.00 0.35 0.00 65 1015.0
20260901204405 91 175 0.0 5.0 0.00 0.35 0.00 65 1015.0
20260901203628 91 115 1.0 6.0 0.00 0.35 0.00 65 1015.0
20260901203122 91 192 1.0 6.0 0.00 0.35 0.00 65 1014.9
20260901202616 92 120 1.0 6.0 0.00 0.35 0.00 66 1014.8
20260901202110 91 190 2.0 6.0 0.00 0.35 0.00 66 1014.9
20260901201604 91 161 3.0 6.0 0.00 0.35 0.00 67 1015.0
20260901201058 91 148 2.0 7.0 0.00 0.35 0.00 64 1015.1
20260901200558 91 173 2.0 7.0 0.00 0.35 0.00 62 1015.2
20260901200111 91 188 2.0 7.0 0.00 0.35 0.00 64 1015.2
20260901195828 92 70 1.0 4.0 0.00 0.35 0.00 64 1015.2
20260901195058 92 355 1.0 4.0 0.00 0.35 0.00 62 1015.2
20260901194556 91 321 1.0 3.0 0.00 0.35 0.00 54 1015.2
20260901194056 91 313 1.0 5.0 0.00 0.35 0.00 55 1015.2
20260901193554 92 0 2.0 5.0 0.00 0.35 0.00 54 1015.3
20260901193053 92 327 2.0 4.0 0.00 0.35 0.00 53 1015.3
20260901192554 93 342 1.0 4.0 0.00 0.35 0.00 55 1015.4
20260901192052 92 355 0.0 3.0 0.00 0.35 0.00 55 1015.3
20260901191553 93 204 1.0 3.0 0.00 0.35 0.00 58 1015.4
20260901191053 93 32 1.0 3.0 0.00 0.35 0.00 61 1015.4
20260901190606 93 330 0.0 3.0 0.00 0.35 0.00 55 1015.5
20260901190106 93 169 0.0 2.0 0.00 0.35 0.00 59 1015.5
20260901185554 92 142 0.0 3.0 0.00 0.35 0.00 59 1015.6
20260901185051 93 349 1.0 3.0 0.00 0.35 0.00 54 1015.7
20260901184549 92 325 1.0 4.0 0.00 0.35 0.00 58 1015.7
20260901184050 91 80 0.0 4.0 0.00 0.35 0.00 56 1015.8
20260901183544 92 154 1.0 4.0 0.00 0.35 0.00 57 1015.8
20260901183316 92 336 1.0 4.0 0.00 0.35 0.00 56 1015.8
20260901182544 92 5 2.0 4.0 0.00 0.35 0.00 58 1015.8
20260901182044 92 30 1.0 4.0 0.00 0.35 0.00 54 1015.9
20260901181544 93 26 1.0 4.0 0.00 0.35 0.00 57 1015.8
20260901181051 92 79 2.0 5.0 0.00 0.35 0.00 55 1015.8
20260901181044 92 205 2.0 5.0 0.00 0.35 0.00 57 1015.8
20260901180044 92 46 2.0 5.0 0.00 0.35 0.00 56 1015.8
20260901175543 92 355 2.0 5.0 0.00 0.35 0.00 55 1015.9
20260901175055 92 327 1.0 4.0 0.00 0.35 0.00 56 1015.9
20260901174544 92 248 1.0 4.0 0.00 0.35 0.00 55 1015.9
20260901174315 92 341 1.0 4.0 0.00 0.35 0.00 56 1015.9
20260901173544 92 178 0.0 4.0 0.00 0.35 0.00 58 1015.9
20260901173043 92 185 1.0 4.0 0.00 0.35 0.00 57 1016.0
20260901172549 92 322 1.0 5.0 0.00 0.35 0.00 66 1016.0
20260901172543 93 183 1.0 4.0 0.00 0.35 0.00 61 1015.9
20260901171544 92 316 2.0 5.0 0.00 0.35 0.00 60 1016.0
20260901171038 91 32 1.0 5.0 0.00 0.35 0.00 62 1016.1
20260901170532 91 222 1.0 5.0 0.00 0.35 0.00 59 1016.0
20260901170026 92 119 1.0 5.0 0.00 0.35 0.00 61 1016.1
20260901165520 92 59 1.0 4.0 0.00 0.35 0.00 60 1016.2
20260901165014 91 336 1.0 4.0 0.00 0.35 0.00 65 1016.2
20260901164508 91 312 2.0 6.0 0.00 0.35 0.00 64 1016.3
20260901164233 91 32 1.0 6.0 0.00 0.35 0.00 65 1016.4
20260901163456 91 348 0.0 3.0 0.00 0.35 0.00 66 1016.4
20260901163221 90 221 0.0 1.0 0.00 0.35 0.00 65 1016.5
20260901162443 90 51 0.0 1.0 0.00 0.35 0.00 66 1016.7
20260901162210 90 347 0.0 2.0 0.00 0.35 0.00 63 1016.7
20260901161432 91 5 0.0 2.0 0.00 0.35 0.00 67 1016.8
20260901160926 91 342 0.0 2.0 0.00 0.35 0.00 69 1016.9
20260901160419 90 355 1.0 4.0 0.00 0.35 0.00 68 1017.0
20260901155914 89 163 0.0 4.0 0.00 0.35 0.00 69 1017.0
20260901155407 89 342 1.0 3.0 0.00 0.35 0.00 67 1017.0
20260901154902 90 355 1.0 3.0 0.00 0.35 0.00 70 1017.1
20260901154355 89 329 0.0 3.0 0.00 0.35 0.00 68 1017.2
20260901153850 89 5 0.0 3.0 0.00 0.35 0.00 70 1017.3
20260901153343 88 344 0.0 3.0 0.00 0.35 0.00 69 1017.3
20260901152838 88 79 1.0 4.0 0.00 0.35 0.00 71 1017.4
20260901152332 88 335 1.0 4.0 0.00 0.35 0.00 70 1017.4
20260901151826 87 38 1.0 3.0 0.00 0.35 0.00 73 1017.5
20260901151552 87 338 0.0 3.0 0.00 0.35 0.00 74 1017.5
20260901150814 87 5 0.0 2.0 0.00 0.35 0.00 75 1017.5
20260901150308 87 5 1.0 4.0 0.00 0.35 0.00 74 1017.5
20260901145802 86 78 1.0 4.0 0.00 0.35 0.00 75 1017.5
20260901145257 86 348 1.0 3.0 0.00 0.35 0.00 74 1017.5
20260901144750 85 186 1.0 3.0 0.00 0.35 0.00 74 1017.5
20260901144244 85 277 1.0 4.0 0.00 0.35 0.00 73 1017.6
20260901143738 86 338 1.0 4.0 0.00 0.35 0.00 72 1017.6
20260901143503 86 57 2.0 4.0 0.00 0.35 0.00 75 1017.5
20260901142726 86 346 1.0 4.0 0.00 0.35 0.00 77 1017.5
20260901142220 85 132 0.0 3.0 0.00 0.35 0.00 77 1017.5
20260901141727 85 355 1.0 2.0 0.00 0.35 0.00 78 1017.6
20260901141209 84 145 1.0 3.0 0.00 0.35 0.00 79 1017.6
20260901141203 84 5 1.0 3.0 0.00 0.35 0.00 77 1017.6
20260901140156 84 349 1.0 4.0 0.00 0.35 0.00 77 1017.5
20260901135650 83 0 0.0 4.0 0.00 0.35 0.00 79 1017.5
20260901135144 83 43 0.0 3.0 0.00 0.35 0.00 80 1017.6
20260901134637 83 30 0.0 0.0 0.00 0.35 0.00 81 1017.5
20260901134132 83 34 0.0 0.0 0.00 0.35 0.00 80 1017.4
20260901133626 82 180 0.0 0.0 0.00 0.35 0.00 82 1017.4
20260901133120 81 194 0.0 0.0 0.00 0.35 0.00 84 1017.4
20260901132614 80 218 0.0 0.0 0.00 0.35 0.00 86 1017.3
20260901132108 78 73 0.0 0.0 0.00 0.35 0.00 89 1017.2
20260901131602 78 234 0.0 0.0 0.00 0.35 0.00 90 1017.3
20260901131327 78 223 0.0 0.0 0.00 0.35 0.00 90 1017.2
20260901130550 77 59 0.0 0.0 0.00 0.35 0.00 90 1017.2
20260901130056 77 79 0.0 0.0 0.00 0.35 0.00 90 1017.2
20260901125539 77 119 0.0 0.0 0.00 0.35 0.00 90 1017.3
20260901125032 77 119 0.0 0.0 0.00 0.35 0.00 90 1017.3
20260901124526 77 355 0.0 0.0 0.00 0.35 0.00 91 1017.3
20260901124251 76 355 0.0 0.0 0.00 0.35 0.00 91 1017.3
20260901123514 76 355 0.0 0.0 0.00 0.35 0.00 90 1017.3
20260901123008 76 355 0.0 0.0 0.00 0.35 0.00 90 1017.3
20260901122502 76 355 0.0 0.0 0.00 0.35 0.00 90 1017.3
20260901121956 76 355 0.0 0.0 0.00 0.35 0.00 90 1017.3
20260901121721 76 355 0.0 0.0 0.00 0.35 0.00 90 1017.4
20260901120944 75 56 0.0 0.0 0.00 0.35 0.00 90 1017.4
20260901120438 75 0 0.0 0.0 0.00 0.35 0.00 90 1017.3
20260901115932 75 0 0.0 0.0 0.00 0.35 0.00 90 1017.3
20260901115426 75 0 0.0 0.0 0.00 0.35 0.00 90 1017.3
20260901114920 74 0 0.0 0.0 0.00 0.35 0.00 90 1017.3
20260901114516 74 0 0.0 0.0 0.00 0.35 0.00 90 1017.2
20260901113402 74 0 0.0 0.0 0.00 0.35 0.00 89 1017.1
20260901113127 74 0 0.0 0.0 0.00 0.35 0.00 89 1017.1
20260901112350 74 0 0.0 0.0 0.00 0.35 0.00 89 1017.1
20260901111844 74 0 0.0 0.0 0.00 0.35 0.00 89 1016.9
20260901111338 74 0 0.0 0.0 0.00 0.35 0.00 89 1017.0
20260901110832 74 0 0.0 0.0 0.00 0.35 0.00 89 1016.9
20260901110326 74 0 0.0 0.0 0.00 0.35 0.00 89 1017.0
20260901110051 74 0 0.0 0.0 0.00 0.35 0.00 89 1017.0
20260901105314 74 0 0.0 0.0 0.00 0.35 0.00 89 1016.9
20260901104807 74 0 0.0 0.0 0.00 0.35 0.00 89 1016.9
20260901104302 74 0 0.0 0.0 0.00 0.35 0.00 89 1016.9
20260901103759 74 0 0.0 0.0 0.00 0.35 0.00 89 1016.7
20260901103752 74 0 0.0 0.0 0.00 0.35 0.00 89 1016.7
20260901102744 74 0 0.0 0.0 0.00 0.35 0.00 89 1016.7
20260901102238 74 0 0.0 0.0 0.00 0.35 0.00 89 1016.7
20260901101732 74 0 0.0 0.0 0.00 0.35 0.00 89 1016.6
20260901101226 74 0 0.0 0.0 0.00 0.35 0.00 89 1016.6
20260901100720 74 0 0.0 0.0 0.00 0.35 0.00 89 1016.7
20260901100214 74 0 0.0 0.0 0.00 0.35 0.00 89 1016.6
20260901095708 74 0 0.0 0.0 0.00 0.35 0.00 89 1016.6
20260901095202 74 0 0.0 0.0 0.00 0.35 0.00 89 1016.6
20260901094656 74 0 0.0 0.0 0.00 0.35 0.00 89 1016.5
20260901094149 74 0 0.0 0.0 0.00 0.35 0.00 89 1016.6
20260901093915 74 0 0.0 0.0 0.00 0.35 0.00 89 1016.6
20260901093138 74 0 0.0 0.0 0.00 0.35 0.00 89 1016.7
20260901092632 74 0 0.0 0.0 0.00 0.35 0.00 89 1016.7
20260901092126 74 0 0.0 0.0 0.00 0.35 0.00 89 1016.7
20260901091619 74 0 0.0 0.0 0.00 0.35 0.00 89 1016.7
20260901091127 74 0 0.0 0.0 0.00 0.35 0.00 89 1016.7
20260901090608 74 0 0.0 0.0 0.00 0.35 0.00 89 1016.7
20260901090107 74 0 0.0 0.0 0.00 0.35 0.00 89 1016.6
20260901085556 74 0 0.0 0.0 0.00 0.35 0.00 89 1016.7
20260901085050 74 0 0.0 0.0 0.00 0.35 0.00 89 1016.7
20260901084544 74 0 0.0 0.0 0.00 0.35 0.00 89 1016.7
20260901084038 74 0 0.0 0.0 0.00 0.35 0.00 89 1016.9
20260901083803 74 0 0.0 0.0 0.00 0.35 0.00 89 1016.9
20260901083026 74 0 0.0 0.0 0.00 0.35 0.00 89 1016.9
20260901082520 75 0 0.0 0.0 0.00 0.35 0.00 89 1017.0
20260901082027 75 0 0.0 0.0 0.00 0.35 0.00 89 1017.0
20260901081507 75 0 0.0 0.0 0.00 0.35 0.00 89 1017.0
20260901081002 75 0 0.0 0.0 0.00 0.35 0.00 89 1017.0
20260901080456 75 0 0.0 0.0 0.00 0.35 0.00 89 1017.0
20260901075950 75 0 0.0 0.0 0.00 0.35 0.00 89 1017.1
20260901075445 75 0 0.0 0.0 0.00 0.35 0.00 89 1017.1
20260901074938 75 0 0.0 0.0 0.00 0.35 0.00 89 1017.2
20260901074445 75 0 0.0 0.0 0.00 0.35 0.00 89 1017.2
20260901073926 75 0 0.0 0.0 0.00 0.35 0.00 89 1017.2
20260901073419 75 0 0.0 0.0 0.00 0.35 0.00 89 1017.3
20260901073145 75 0 0.0 0.0 0.00 0.35 0.00 89 1017.3
20260901072407 75 0 0.0 0.0 0.00 0.35 0.00 89 1017.3
20260901071902 75 0 0.0 0.0 0.00 0.35 0.00 89 1017.4
20260901071628 75 0 0.0 0.0 0.00 0.35 0.00 89 1017.4
20260901070850 75 0 0.0 0.0 0.00 0.35 0.00 89 1017.5
20260901070615 75 0 0.0 0.0 0.00 0.35 0.00 89 1017.5
20260901065837 75 0 0.0 0.0 0.00 0.35 0.00 89 1017.5
20260901065603 75 0 0.0 0.0 0.00 0.35 0.00 89 1017.5
20260901064826 75 0 0.0 0.0 0.00 0.35 0.00 89 1017.6
20260901064320 75 0 0.0 0.0 0.00 0.35 0.00 89 1017.6
20260901063814 75 0 0.0 0.0 0.00 0.35 0.00 89 1017.6
20260901063308 75 0 0.0 0.0 0.00 0.35 0.00 89 1017.7
20260901062802 75 0 0.0 0.0 0.00 0.35 0.00 89 1017.7
20260901062255 75 0 0.0 0.0 0.00 0.35 0.00 89 1017.6
20260901061750 75 0 0.0 0.0 0.00 0.35 0.00 89 1017.7
20260901061244 75 0 0.0 0.0 0.00 0.35 0.00 89 1017.9
20260901060738 75 0 0.0 0.0 0.00 0.35 0.00 89 1017.8
20260901060232 75 0 0.0 0.0 0.00 0.35 0.00 89 1017.9
20260901055738 75 0 0.0 0.0 0.00 0.35 0.00 89 1017.9
20260901055455 75 0 0.0 0.0 0.00 0.35 0.00 89 1018.0
20260901055217 75 0 0.0 0.0 0.00 0.35 0.00 89 1018.1
20260901054442 75 0 0.0 0.0 0.00 0.35 0.00 89 1018.2
20260901054328 75 0 0.0 0.0 0.00 0.35 0.00 89 1018.2
20260901053210 75 0 0.0 0.0 0.00 0.35 0.00 89 1018.2
20260901052707 76 0 0.0 0.0 0.00 0.35 0.00 89 1018.3
20260901052207 76 0 0.0 0.0 0.00 0.35 0.00 89 1018.2
20260901051706 76 0 0.0 0.0 0.00 0.35 0.00 89 1018.2
20260901051205 76 0 0.0 0.0 0.00 0.35 0.00 89 1018.2
20260901050719 76 0 0.0 0.0 0.00 0.35 0.00 89 1018.1
20260901050207 76 0 0.0 0.0 0.00 0.35 0.00 89 1018.1
20260901045933 76 0 0.0 0.0 0.00 0.35 0.00 89 1018.1
20260901045202 76 0 0.0 0.0 0.00 0.35 0.00 89 1018.2
20260901044931 76 0 0.0 0.0 0.00 0.35 0.00 89 1018.2
20260901044158 76 0 0.0 0.0 0.00 0.35 0.00 89 1018.2
20260901043926 76 0 0.0 0.0 0.00 0.35 0.00 89 1018.3
20260901043153 76 0 0.0 0.0 0.00 0.35 0.00 89 1018.3
20260901042650 76 0 0.0 0.0 0.00 0.35 0.00 89 1018.3
20260901042150 76 0 0.0 0.0 0.00 0.35 0.00 89 1018.2
20260901041648 76 0 0.0 0.0 0.00 0.35 0.00 89 1018.2
20260901041417 76 0 0.0 0.0 0.00 0.35 0.00 89 1018.2
20260901040644 76 0 0.0 0.0 0.00 0.35 0.00 89 1018.1